Fort Knox, KY

2:55 AM EDT on June 26, 2017 (GMT -0400)
Godman Army Air Field

Weather History for KFTK - October, 2012

Change the Weather History Date:

Friday, October 12, 2012

  Actual Average Record
Temperature  
Mean Temperature 54 °F -  
Max Temperature 66 °F 67 °F 85 °F (2008)
Min Temperature 43 °F 45 °F 33 °F (2006)
Degree Days  
Heating Degree Days 10    
Growing Degree Days 4 (Base 50)    
Moisture  
Dew Point 45 °F    
Average Humidity 74    
Maximum Humidity 94    
Minimum Humidity 45    
Precipitation  
Precipitation 0.06 in - - ()
Sea Level Pressure  
Sea Level Pressure 30.28 in    
Wind  
Wind Speed 2 mph (NE)    
Max Wind Speed 8 mph    
Max Gust Speed -    
Visibility 10 miles    
Events Rain    
Averages and records for this station are not official NWS values.
T = Trace of Precipitation, MM = Missing Value Source: NWS Daily Summary

Daily Weather History Graph

Daily Weather History Graph

Search for Another Location

Airport or City:

Trip Planner

Search our weather history database for the weather conditions in past years. The results will help you decide how hot, cold, wet, or windy it might be!

Date:

Astronomy

Oct. 12, 2012 Rise Set
Actual Time 7:49 AM EDT 7:09 PM EDT
Civil Twilight 7:23 AM EDT 7:36 PM EDT
Nautical Twilight 6:53 AM EDT 8:06 PM EDT
Astronomical Twilight 6:22 AM EDT 8:37 PM EDT
Moon 4:35 AM EDT (10/12) 5:17 PM EDT (10/12)
Length of Visible Light 12h 12m
Length of Day
11h 19m
Waning Crescent, 11% of the Moon is Illuminated
Oct 12
Waning Crescent
Oct 15
New
Oct 21
First Quarter
Oct 29
Full
Nov 6
Last Quarter

Hourly Weather History & Observations

Time (EDT) Temp. Dew Point Humidity Pressure Visibility Wind Dir Wind Speed Gust Speed Precip Events Conditions
12:55 AM 45.0 °F 39.2 °F 80% 30.22 in 10.0 mi East 2.3 mph - N/A   Mostly Cloudy
1:55 AM 43.9 °F 39.9 °F 86% 30.21 in 10.0 mi North 2.3 mph - N/A   Scattered Clouds
2:55 AM 44.1 °F 41.0 °F 89% 30.21 in 10.0 mi Calm Calm - N/A   Mostly Cloudy
3:55 AM 46.2 °F 43.2 °F 89% 30.24 in 10.0 mi Calm Calm - N/A   Overcast
4:12 AM 46.4 °F 44.6 °F 93% 30.23 in 7.0 mi Calm Calm - N/A Rain Light Rain Showers
4:55 AM 48.2 °F 45.7 °F 91% 30.24 in 7.0 mi NNW 3.5 mph - 0.00 in Rain Light Rain
5:55 AM 48.0 °F 46.2 °F 93% 30.25 in 7.0 mi WSW 3.5 mph - 0.02 in Rain Light Rain
6:55 AM 48.4 °F 46.6 °F 93% 30.25 in 7.0 mi NW 1.2 mph - 0.04 in Rain Light Rain
7:13 AM 48.2 °F 46.4 °F 93% 30.25 in 10.0 mi SSW 4.6 mph - N/A   Overcast
7:55 AM 48.4 °F 46.8 °F 94% 30.26 in 10.0 mi Calm Calm - N/A   Overcast
8:55 AM 49.1 °F 47.5 °F 94% 30.29 in 10.0 mi Calm Calm - N/A   Mostly Cloudy
9:55 AM 51.8 °F 47.1 °F 84% 30.31 in 10.0 mi Calm Calm - N/A   Mostly Cloudy
10:55 AM 54.7 °F 45.7 °F 72% 30.32 in 10.0 mi Calm Calm - N/A   Mostly Cloudy
11:55 AM 58.6 °F 44.8 °F 60% 30.33 in 10.0 mi Variable 5.8 mph - N/A   Partly Cloudy
12:55 PM 60.8 °F 46.8 °F 60% 30.33 in 10.0 mi ENE 8.1 mph - N/A   Scattered Clouds
1:55 PM 62.6 °F 45.9 °F 54% 30.32 in 10.0 mi Calm Calm - N/A   Clear
2:55 PM 65.7 °F 46.2 °F 49% 30.30 in 10.0 mi Calm Calm - 0.00 in Rain Light Rain
3:55 PM 66.7 °F 45.7 °F 47% 30.29 in 10.0 mi NNW 3.5 mph - N/A   Clear
4:55 PM 66.4 °F 44.2 °F 45% 30.27 in 10.0 mi East 5.8 mph - N/A   Clear
5:55 PM 65.5 °F 44.6 °F 47% 30.28 in 10.0 mi ENE 3.5 mph - N/A   Clear
6:55 PM 63.0 °F 45.0 °F 52% 30.29 in 10.0 mi Calm Calm - N/A   Clear
7:55 PM 57.7 °F 46.9 °F 67% 30.29 in 10.0 mi NNE 5.8 mph - N/A   Partly Cloudy
8:55 PM 54.9 °F 46.2 °F 73% 30.30 in 10.0 mi NNE 6.9 mph - N/A   Scattered Clouds
9:55 PM 55.0 °F 45.1 °F 69% 30.30 in 10.0 mi ENE 6.9 mph - N/A   Scattered Clouds
10:55 PM 54.0 °F 45.1 °F 72% 30.30 in 10.0 mi East 5.8 mph - N/A   Clear
11:55 PM 52.2 °F 44.6 °F 75% 30.31 in 10.0 mi East 5.8 mph - N/A   Clear